Wind_Speed
16 15 15 15 15 15 14 14 14 14 14 14 13 13 13 13 13 14 14 14 14 13 13 13 13 13 14 15 16 17 19 20 21 22 22 22 21 20 19 18 17 16 15 14 13 12 11 11 11 10 10 11 11 11 12 12 12 12 11 12 13 13 14 15 15 15 15 15 15 15 15 14 14 14 13 13 13 13 13 13 13 14 14 14 13
16 16 15 15 15 15 14 13 14 14 13 13 12 13 13 13 13 13 13 13 13 12 12 12 12 13 14 15 17 18 19 21 21 22 21 21 20 18 17 17 16 15 14 13 12 10 10 10 10 10 10 11 11 12 12 12 12 12 13 14 15 15 16 16 16 16 16 16 16 16 15 15 15 15 15 15 15 15 15 14 15 15 15 15 14
15 15 15 15 14 14 13 13 14 13 13 12 12 12 13 13 13 13 13 13 13 12 12 12 12 13 15 16 17 18 20 21 21 21 20 20 18 17 16 16 15 15 13 12 11 10 10 10 10 10 10 11 12 12 12 12 13 14 15 16 16 16 16 16 16 16 16 16 15 15 15 15 15 15 15 15 15 15 16 16 16 16 16 16 15
14 14 14 14 13 13 13 13 13 13 12 12 12 12 12 13 13 13 13 13 12 12 12 12 12 14 15 16 17 19 20 20 20 20 19 18 17 16 15 15 14 14 13 12 10 9 9 9 10 10 11 12 12 12 13 13 14 15 15 16 16 16 16 16 16 16 16 15 15 15 15 16 16 16 16 16 16 16 17 17 17 17 17 17 17
13 13 13 13 13 13 13 13 13 13 13 12 12 12 12 13 13 13 13 12 11 11 11 12 13 14 15 16 17 19 19 20 20 19 18 17 16 15 15 14 13 13 12 11 10 9 9 10 10 11 11 11 12 12 13 14 15 15 16 16 16 16 16 16 16 16 16 16 16 16 16 16 17 17 17 17 17 17 17 17 17 17 17 18 17
12 12 12 12 13 12 13 13 13 13 12 12 11 11 12 12 13 13 12 12 11 11 11 11 13 14 15 16 17 18 19 19 19 18 17 16 14 14 14 13 12 11 10 9 9 9 9 10 10 11 11 11 12 13 14 15 15 16 16 16 16 16 16 16 16 16 16 16 16 16 17 17 17 18 18 18 18 18 18 18 18 18 18 18 18
11 12 13 13 13 13 13 14 13 12 12 12 11 11 11 12 12 12 11 11 10 10 11 12 13 15 16 17 18 18 18 18 18 17 15 14 13 13 13 13 11 10 9 8 8 8 9 10 10 11 11 11 12 14 15 15 16 16 16 16 16 16 16 16 16 16 16 16 17 17 17 18 18 18 18 18 19 19 19 19 19 19 19 19 19
11 12 13 13 13 13 13 13 13 12 12 12 11 11 11 11 11 11 10 10 9 10 11 12 14 15 16 17 18 18 18 17 17 15 14 13 13 13 13 11 10 9 8 8 7 8 8 9 10 10 10 11 13 14 15 15 15 15 15 15 15 16 16 16 16 16 16 17 17 17 17 18 18 18 18 19 19 20 20 20 21 20 21 21 21
11 12 13 13 13 14 13 12 12 12 12 12 11 10 10 10 10 10 10 9 9 9 11 13 14 15 16 17 17 17 17 16 15 14 13 12 13 13 12 10 9 9 8 7 7 7 8 9 9 10 10 12 13 13 13 13 13 13 13 14 15 15 16 16 16 16 16 16 17 17 18 18 19 19 19 20 20 20 21 21 21 22 22 22 22
12 13 13 14 14 13 13 12 12 12 12 12 11 11 10 10 9 9 9 9 9 8 11 13 14 15 16 17 17 17 16 16 14 13 12 11 12 12 11 10 9 8 7 7 7 7 7 8 9 9 10 11 12 11 11 11 11 11 12 13 14 14 15 15 15 15 15 16 17 18 18 19 20 20 20 21 21 22 22 22 23 23 23 23 23
12 13 14 13 13 13 12 11 11 12 12 12 11 11 10 10 9 9 9 9 9 9 11 13 14 15 16 17 17 17 16 15 14 12 11 11 11 11 10 9 8 7 7 6 6 6 7 7 8 9 9 10 10 9 9 9 10 10 11 12 13 13 13 13 14 15 15 16 17 18 19 20 21 21 22 22 23 23 23 24 24 24 24 24 24
12 13 13 13 12 12 11 11 11 11 11 11 12 11 11 10 9 8 8 9 10 10 11 13 13 14 16 17 17 17 17 15 14 12 11 10 10 9 9 9 8 7 6 6 6 6 6 6 7 8 8 8 8 7 7 8 8 9 10 11 11 12 12 13 14 14 15 16 17 18 19 21 22 22 23 23 23 24 24 24 24 24 25 25 25
12 13 13 13 12 12 11 11 10 10 11 11 11 11 10 9 8 8 8 8 9 9 10 12 13 14 16 16 17 17 16 15 14 12 11 10 9 8 8 7 7 6 6 6 5 5 5 6 6 7 7 6 6 6 7 7 8 9 9 10 10 11 11 13 14 14 15 16 17 18 19 21 22 23 23 24 24 24 24 24 25 25 25 26 26
11 12 12 12 12 11 11 10 10 10 10 11 11 11 10 9 8 8 7 7 8 8 9 11 12 14 16 17 17 16 16 15 13 12 11 9 9 8 7 6 6 6 6 6 5 4 4 5 5 5 5 5 5 6 6 7 8 9 9 10 11 11 12 13 14 15 16 17 18 19 20 21 22 23 23 24 24 24 24 24 25 26 26 26 26
11 12 11 11 11 11 11 10 10 10 10 10 10 10 9 9 8 8 7 7 8 8 8 9 11 13 16 17 17 16 15 14 13 12 10 9 8 7 6 6 6 6 5 5 5 4 3 4 4 4 4 4 5 6 7 7 7 8 8 10 11 11 13 14 14 15 16 17 18 19 20 21 22 23 24 24 25 25 25 25 26 26 26 26 26
11 11 11 11 11 11 10 10 9 9 9 9 9 9 8 8 8 8 8 9 9 8 8 9 11 13 15 16 16 16 15 14 13 11 10 8 8 7 6 5 5 5 4 4 4 3 3 3 3 3 3 4 5 5 6 6 6 7 8 10 10 11 12 13 13 14 15 16 17 19 20 21 23 24 25 25 26 26 26 26 26 27 27 27 26
11 10 10 10 10 10 10 9 9 9 8 8 8 8 7 7 8 8 9 9 9 9 8 8 10 12 14 15 15 15 15 14 13 11 9 8 8 7 6 5 5 4 4 4 4 3 2 2 2 2 3 3 4 4 4 4 5 6 8 9 9 10 11 12 12 13 14 15 17 19 20 22 23 24 26 26 27 26 26 26 27 27 28 28 27
10 10 10 10 9 9 9 9 9 8 8 8 7 7 7 7 8 8 8 8 8 8 8 8 10 12 14 15 15 14 14 14 13 11 10 8 8 7 6 5 4 4 4 4 4 3 3 2 1 1 1 2 2 3 3 4 4 6 7 8 8 10 11 12 13 14 15 16 18 20 21 23 24 26 27 27 28 27 27 27 27 28 28 28 28
9 9 9 9 9 9 9 9 9 8 8 8 8 7 7 8 7 7 7 7 7 7 8 9 10 12 13 14 14 14 14 14 13 12 10 9 8 7 6 5 4 3 3 3 3 3 3 3 2 2 2 2 2 2 3 3 3 4 5 6 8 9 11 12 14 16 17 18 20 21 23 25 26 27 28 28 28 28 27 27 27 28 28 29 29
8 8 8 8 8 9 9 9 8 8 9 8 8 8 8 7 7 6 6 6 7 8 8 9 9 11 12 13 13 14 14 13 13 12 11 9 8 8 6 6 4 3 2 2 2 2 2 3 2 2 2 1 1 1 2 3 4 5 6 7 8 10 11 13 15 16 18 19 21 23 25 26 28 28 28 29 29 28 27 27 27 28 29 29 30
7 8 8 8 8 8 8 8 8 8 9 9 9 8 8 7 6 6 6 6 7 8 9 9 9 10 11 12 13 13 13 12 12 12 11 10 9 8 7 6 5 5 4 3 2 2 2 1 1 1 1 1 2 3 4 5 7 8 8 9 10 10 12 13 15 16 18 20 22 24 26 27 29 29 30 30 30 29 28 28 28 29 30 30 31
7 8 7 7 7 7 8 8 7 7 8 9 9 8 8 7 6 6 6 7 7 8 8 9 9 10 11 12 12 13 13 12 11 12 11 10 10 9 8 7 7 6 6 6 5 5 4 4 4 3 3 4 4 5 6 7 8 9 10 11 11 12 12 13 14 16 18 20 22 24 26 28 29 30 30 31 31 31 30 29 29 30 31 31 31
7 8 7 7 7 7 7 7 7 8 8 8 8 8 7 7 6 6 6 7 7 7 7 7 8 10 11 12 12 12 12 12 12 12 11 11 11 10 10 9 8 8 8 8 8 8 7 7 7 7 7 7 7 8 9 9 10 11 12 13 14 14 14 14 15 16 18 20 22 24 26 28 29 30 31 32 32 32 31 30 30 30 31 32 32
7 8 8 8 8 7 7 7 7 8 8 8 7 7 7 6 6 6 6 6 6 6 5 5 6 7 9 10 11 11 12 12 12 12 12 12 12 12 11 11 10 10 9 9 10 10 10 11 11 10 10 10 10 11 12 12 13 14 15 16 16 17 17 17 17 18 20 21 23 25 27 28 30 31 32 32 33 33 31 30 30 31 32 33 32
9 9 9 9 9 8 8 8 8 8 8 8 7 7 6 6 6 5 5 5 6 5 4 4 4 5 6 7 9 9 10 11 12 12 12 13 13 13 13 13 13 13 12 11 11 11 12 13 13 13 13 13 13 13 14 15 15 16 17 18 18 19 19 19 19 20 22 23 24 26 28 29 31 32 33 33 33 32 31 30 30 31 32 33 32
10 9 9 10 10 10 9 9 8 8 8 8 7 7 7 7 6 5 5 5 5 5 4 3 3 4 4 5 6 7 8 9 11 11 11 13 14 15 15 15 15 15 15 14 13 13 14 14 15 15 15 15 15 14 15 16 17 17 18 19 20 21 21 21 22 22 24 25 26 27 29 30 32 33 34 34 34 32 31 31 31 32 33 33 32
10 10 10 10 10 11 11 10 10 9 9 8 8 8 8 8 7 7 6 6 6 5 5 4 3 3 3 3 4 5 6 8 9 10 12 13 14 15 16 16 16 17 17 17 17 16 16 16 16 17 17 17 17 17 16 17 17 18 19 20 21 22 23 23 24 25 26 26 27 29 30 31 32 33 34 34 33 32 31 31 32 33 33 32 31
9 10 10 10 11 11 11 10 10 10 10 9 9 8 8 8 8 7 7 7 7 6 6 5 4 4 3 4 4 5 6 7 9 10 12 13 14 15 16 17 17 17 17 18 19 19 19 18 18 18 18 18 19 19 18 17 17 18 19 20 21 22 23 24 26 27 27 28 28 29 30 31 32 33 33 33 33 32 31 32 33 33 32 31 30
9 10 10 11 11 11 11 11 10 10 10 10 9 9 9 8 8 8 7 8 8 7 7 7 6 5 5 5 5 6 6 6 7 9 11 12 13 14 15 16 17 17 17 18 18 20 20 20 20 19 19 19 19 19 19 18 18 18 19 20 21 22 23 25 26 27 28 28 28 28 29 30 31 31 32 31 31 31 32 33 33 33 32 30 28
10 10 10 10 11 11 11 11 11 10 10 10 9 9 9 8 8 8 7 7 8 9 9 8 7 7 6 6 6 6 6 6 6 7 9 10 10 11 12 13 14 16 17 18 18 18 20 20 20 20 20 20 20 20 20 20 20 20 20 21 21 22 22 23 25 26 27 27 26 26 27 28 29 29 29 29 30 31 32 33 33 32 31 29 25
11 11 11 11 11 11 11 11 11 11 10 10 10 9 9 8 8 8 7 7 8 9 9 9 9 8 7 7 7 7 7 7 7 8 8 9 9 9 10 11 12 13 15 16 17 17 17 18 18 19 20 20 20 21 21 21 22 22 22 22 22 22 21 22 22 23 24 24 24 24 25 26 26 26 26 27 29 31 32 33 33 31 29 28 23
12 12 12 12 12 12 12 11 11 11 11 10 10 9 9 8 8 8 8 8 8 9 9 9 9 9 9 9 9 9 9 9 9 9 9 10 10 10 10 11 12 13 14 15 15 14 15 16 16 17 18 18 19 20 20 21 22 22 23 22 22 22 21 21 21 22 22 22 22 23 23 24 24 24 24 26 28 31 32 32 31 29 27 26 21
13 13 14 14 14 13 13 12 12 11 11 10 10 9 9 9 9 8 9 9 9 9 9 9 10 10 10 10 10 11 11 11 11 11 11 11 11 11 11 11 12 14 14 15 15 14 14 15 16 16 17 17 17 18 19 20 21 21 21 22 22 22 22 22 21 21 22 22 22 22 22 22 22 22 23 25 28 30 31 30 29 27 26 24 20
14 14 15 15 15 14 13 13 12 12 12 11 10 10 10 9 9 9 9 9 9 9 9 9 10 10 10 10 11 11 11 11 12 12 12 12 12 12 12 13 13 15 16 16 15 15 14 15 16 17 18 18 18 19 19 19 20 20 21 22 22 22 23 23 22 22 22 22 22 22 22 22 21 22 23 25 27 28 29 28 26 25 24 22 20
15 15 15 15 15 15 14 14 14 13 13 12 11 11 10 10 9 9 9 9 9 9 8 9 9 9 9 10 10 11 11 11 12 12 13 13 13 13 13 14 14 15 16 16 16 16 15 14 15 16 17 17 18 19 19 20 20 20 21 21 22 23 24 24 24 24 24 23 23 22 22 22 23 24 24 25 26 27 27 25 24 23 21 21 20
16 16 16 16 15 15 15 15 14 14 14 13 12 12 11 10 10 10 9 9 9 9 9 9 9 9 9 9 10 11 10 10 11 12 13 13 13 14 14 14 15 15 15 16 16 17 16 15 15 15 16 16 17 18 19 19 19 20 21 22 23 23 24 25 25 25 24 24 23 23 23 24 25 25 25 25 26 27 26 24 22 21 19 19 19
17 16 16 16 16 15 15 15 15 15 14 14 13 13 12 12 11 11 11 11 10 10 10 10 10 9 9 9 10 10 10 10 11 12 12 13 14 14 14 14 15 15 15 16 17 17 18 17 16 16 16 16 16 17 18 19 19 20 21 22 23 24 25 25 25 25 25 24 24 24 24 25 25 25 24 24 26 27 26 23 21 20 19 18 19
19 18 18 17 16 17 16 16 16 16 15 15 14 14 13 13 13 13 13 12 12 12 12 12 12 11 11 10 11 11 11 11 11 12 13 14 14 14 14 14 15 15 16 16 17 18 18 18 18 17 17 17 17 17 18 19 20 20 21 22 22 23 25 25 25 25 25 26 25 25 25 24 24 23 23 23 24 26 26 23 21 20 18 18 17
21 21 20 19 18 18 18 18 18 17 17 16 16 15 15 14 14 14 14 14 14 14 14 14 14 13 13 13 13 12 12 12 13 14 14 15 15 15 15 16 16 16 17 17 18 19 19 19 19 18 18 18 18 18 18 19 20 21 23 23 23 23 24 25 24 24 24 25 25 24 23 23 23 23 23 23 23 25 25 23 21 20 18 18 17
24 23 22 21 20 20 20 20 20 19 19 18 17 17 17 16 16 15 15 15 15 15 16 16 16 16 16 15 15 14 14 14 15 15 16 16 17 17 17 17 18 18 18 19 19 20 20 20 20 20 20 20 20 20 20 20 21 22 24 25 25 24 24 23 23 23 23 23 23 22 21 21 22 22 23 22 23 24 25 23 22 20 19 18 17
24 25 24 24 23 22 21 21 21 21 21 20 19 19 19 18 18 17 17 17 17 17 17 18 18 18 17 17 17 16 16 16 16 16 17 17 18 18 18 19 20 20 20 20 21 21 21 21 21 21 21 21 21 21 21 21 22 23 24 26 26 25 25 24 22 21 23 23 22 20 20 21 22 22 22 22 23 24 25 24 23 21 19 18 18
23 24 25 25 25 24 23 22 22 22 22 21 21 22 21 21 21 20 19 19 19 19 19 19 19 19 19 19 18 18 18 18 18 18 18 19 20 20 19 20 21 22 22 22 22 22 22 23 22 23 23 22 21 22 22 22 23 24 25 26 27 26 27 26 23 21 21 23 23 21 19 20 22 22 21 22 23 24 25 25 24 22 20 19 19
23 24 24 25 26 26 25 24 24 23 23 23 23 24 24 24 23 23 22 21 21 21 20 20 20 20 21 21 20 20 20 20 20 20 21 21 22 22 22 22 22 23 23 23 23 23 24 24 24 24 24 23 23 23 24 24 24 25 25 27 28 28 28 28 26 23 21 22 24 22 19 18 20 21 20 21 23 25 25 24 23 22 21 20 19
25 25 25 25 25 25 24 24 24 25 25 25 25 25 26 26 26 25 24 24 23 23 22 22 22 22 22 22 22 22 22 22 22 22 23 23 24 24 24 24 24 24 25 25 25 25 25 26 26 25 26 26 25 24 25 26 26 26 26 27 28 29 29 29 29 26 23 22 23 23 20 17 18 20 20 19 22 25 25 24 23 22 21 21 20
26 26 27 27 27 26 25 24 25 26 26 27 26 27 27 27 28 27 26 26 25 24 23 23 23 23 23 23 23 23 23 23 23 23 24 24 24 25 25 25 25 25 26 26 26 26 27 27 27 26 26 26 27 25 25 27 27 27 27 27 27 27 28 28 28 27 25 24 25 25 22 18 18 20 19 19 22 25 25 24 23 22 21 21 20
26 27 27 28 29 29 27 26 26 26 26 26 26 27 27 28 28 28 28 27 26 24 23 22 22 23 23 24 24 24 24 24 24 24 24 25 25 25 25 26 26 26 26 27 27 27 28 28 29 28 27 27 28 28 27 28 29 29 29 28 27 26 26 27 27 26 25 24 25 27 25 22 21 21 20 20 22 24 25 24 23 23 23 21 19
26 26 27 29 30 31 30 28 28 27 26 25 25 25 26 27 28 28 28 27 26 25 24 23 22 22 23 24 24 24 24 24 24 24 24 25 25 25 26 26 26 26 26 26 27 27 27 28 29 30 29 29 29 29 29 29 30 31 31 30 29 28 28 28 28 27 26 25 26 28 27 25 23 23 21 21 23 24 24 24 24 25 24 22 19
25 25 26 28 30 31 30 29 29 27 26 26 26 26 26 27 28 28 28 28 27 26 26 25 24 24 24 24 24 24 24 23 24 24 24 24 25 25 25 25 25 26 25 25 26 27 28 29 30 31 31 30 30 29 29 29 30 30 32 32 30 30 31 31 30 29 27 26 26 28 28 26 25 25 24 23 23 23 23 23 25 25 24 22 20
25 26 28 28 29 29 29 28 28 27 26 25 24 25 26 27 28 29 29 28 28 28 28 28 27 26 25 25 25 25 25 24 24 24 24 25 25 25 26 26 26 26 26 26 27 28 29 31 32 32 32 31 30 30 29 28 29 30 32 32 31 31 33 33 32 31 29 27 27 29 30 28 26 27 27 26 25 24 22 22 23 25 25 23 20
24 27 29 28 26 26 26 26 25 25 25 24 23 24 25 26 28 29 29 30 30 30 30 30 29 28 27 27 27 28 28 27 27 26 26 26 27 28 28 28 29 28 28 29 30 31 31 32 33 33 33 32 32 31 30 29 29 30 31 31 31 32 34 34 34 33 32 29 28 29 32 30 28 28 29 29 27 26 24 21 21 23 25 23 20
25 26 25 24 23 24 24 24 24 24 25 24 24 25 26 27 28 29 30 32 33 33 32 32 31 31 30 30 30 30 31 31 30 30 29 30 30 30 31 32 32 32 32 33 34 34 34 34 34 35 35 34 34 33 32 31 30 31 31 31 32 33 34 35 35 34 33 31 28 30 33 32 30 30 30 31 30 27 26 24 21 20 23 24 22
Wind_Direction
117 119 121 120 119 118 118 119 119 117 113 110 109 107 104 102 103 104 106 109 112 113 110 107 106 106 110 115 118 121 122 122 122 122 122 122 122 122 122 121 120 118 117 115 113 111 106 98 91 84 76 68 61 55 50 45 40 36 34 34 36 36 37 39 39 37 36 36 34 30 26 23 18 14 11 8 5 2 359 356 355 354 354 352 350
122 123 123 123 123 123 123 120 117 115 113 111 109 107 105 104 104 106 108 111 113 113 111 109 109 110 115 119 122 123 124 123 123 123 123 123 124 124 123 122 119 118 116 113 110 107 100 92 85 77 69 62 56 51 46 43 42 43 45 46 47 46 46 46 45 43 41 40 38 35 31 27 22 18 15 13 10 6 3 360 357 356 355 354 352
123 123 122 123 124 123 121 118 117 116 117 115 112 109 106 105 105 107 109 111 113 113 112 113 113 116 120 122 124 125 124 124 124 124 125 126 126 125 123 121 119 117 114 109 106 101 93 85 79 71 64 58 53 50 49 50 51 52 53 54 53 52 51 51 49 47 44 42 41 37 33 29 24 21 18 16 12 9 6 3 1 359 358 357 356
123 122 123 124 123 122 119 118 118 119 119 116 113 110 108 107 106 107 108 109 112 115 117 117 118 120 122 124 126 126 125 125 126 126 127 128 127 125 123 121 119 116 111 107 103 97 88 81 74 67 61 56 54 55 57 59 59 59 59 59 58 56 55 54 52 50 46 43 40 37 33 29 25 21 19 16 13 10 7 4 2 360 358 357 356
126 124 124 125 124 123 121 119 121 121 119 117 115 113 111 109 107 106 107 109 112 117 120 120 121 123 124 126 127 127 127 127 128 129 130 129 128 125 122 120 118 114 110 107 103 95 86 77 70 64 60 58 60 64 67 67 67 65 64 63 61 58 56 54 52 49 45 42 38 35 32 29 25 22 18 16 14 10 7 5 3 1 358 357 356
132 131 129 128 127 124 122 120 119 117 117 117 117 115 113 111 109 109 110 112 114 120 123 122 124 126 127 129 129 129 129 130 132 132 132 130 128 125 122 120 116 113 110 107 102 93 84 75 69 64 62 64 69 73 74 73 72 69 66 63 60 58 55 53 50 47 43 39 36 33 31 28 26 23 19 17 15 13 10 8 7 4 0 358 356
139 138 135 133 130 126 123 120 117 117 118 120 119 117 114 113 112 113 114 116 119 125 127 127 128 129 130 131 131 131 131 133 134 134 133 131 127 125 122 119 115 112 109 105 99 90 83 76 70 67 67 72 77 79 78 76 73 69 66 62 58 55 52 48 45 42 38 35 32 30 29 28 26 24 22 19 18 16 14 12 10 7 4 0 357
143 143 141 138 134 129 124 121 121 120 121 121 120 118 117 116 115 116 119 121 122 128 132 132 131 131 132 134 133 133 133 135 136 136 134 131 128 126 122 119 115 111 105 100 94 88 83 78 73 72 76 81 84 83 80 76 73 68 64 60 55 50 46 41 38 36 34 32 30 29 28 27 26 24 22 19 17 16 14 12 10 9 7 3 360
144 146 144 140 136 131 126 125 125 124 124 124 123 122 120 119 118 118 120 122 122 128 135 134 133 133 134 134 133 133 135 137 138 136 135 132 130 128 124 120 115 109 103 96 90 85 81 78 75 78 85 88 87 84 80 75 70 65 60 56 51 47 43 38 35 33 32 31 30 29 27 25 23 21 19 17 16 15 13 11 9 7 6 4 1
141 144 143 140 137 134 130 129 129 128 126 126 125 124 122 119 118 120 120 120 120 126 135 136 135 135 134 134 134 134 135 137 138 137 136 133 130 129 126 122 116 109 102 94 88 84 79 75 76 83 91 93 89 83 77 71 64 58 53 49 46 43 40 37 34 33 32 31 29 27 24 22 20 18 17 16 14 13 12 11 9 7 6 3 1
136 140 141 139 137 134 133 133 132 130 126 124 125 126 126 125 123 124 123 122 123 127 135 136 134 134 134 134 134 135 137 138 139 139 137 134 130 128 126 123 119 112 104 97 91 84 77 72 76 87 95 95 89 81 72 63 54 49 44 41 39 36 35 36 35 34 32 29 26 23 21 20 18 17 15 13 11 9 7 6 7 7 6 3 0
137 141 141 139 136 134 135 136 134 129 125 124 127 130 131 131 132 131 128 125 124 126 132 133 131 132 134 135 136 138 139 140 141 142 140 135 130 127 127 126 123 116 108 102 95 88 77 71 78 89 96 94 87 76 64 53 43 38 33 31 29 28 33 38 37 33 30 26 22 20 19 18 17 16 14 11 8 5 2 1 1 2 2 2 0
142 143 143 140 136 134 136 136 134 129 126 128 130 132 133 136 139 139 134 127 122 123 129 132 131 133 137 138 139 140 142 144 145 145 143 137 131 127 127 127 125 121 117 111 103 93 79 70 75 88 94 89 78 63 50 39 29 24 22 24 26 30 38 42 38 32 26 22 20 18 16 15 14 13 11 8 5 2 359 357 357 358 357 358 358
145 146 145 142 138 135 136 135 134 132 129 130 131 132 134 139 144 144 141 133 125 124 128 133 135 137 140 140 141 143 145 148 149 149 147 141 133 129 124 123 124 125 125 122 115 104 85 70 70 80 84 75 58 43 32 23 20 20 25 32 36 40 44 42 36 29 24 21 19 17 14 12 11 9 7 4 2 359 357 355 355 355 354 354 355
147 148 147 143 140 137 137 136 135 135 134 133 132 132 135 140 146 150 147 140 135 132 132 138 142 143 143 144 145 146 147 151 153 153 151 143 136 128 119 118 124 128 130 133 130 121 98 73 64 63 62 52 36 23 16 18 24 31 40 45 45 43 42 40 33 27 23 20 17 14 11 9 7 5 4 1 358 355 354 353 353 353 352 352 353
150 150 149 145 143 141 138 138 139 137 135 135 134 135 138 141 147 152 151 146 143 140 137 142 149 149 148 147 148 148 149 153 156 156 154 147 139 129 118 114 116 121 129 139 141 136 116 83 59 45 36 27 20 14 15 25 39 46 48 49 47 42 38 34 30 25 21 16 12 10 7 6 5 3 1 359 356 353 351 350 350 351 351 352 352
153 155 153 149 147 144 142 143 145 141 138 140 142 142 142 142 147 154 155 151 147 143 141 146 153 155 153 151 151 151 153 155 158 159 158 153 147 139 125 116 113 117 128 141 147 149 144 116 69 30 11 12 20 27 36 46 53 51 47 45 42 38 31 24 20 19 15 11 7 5 2 2 1 360 358 356 354 351 349 349 349 349 349 351 352
155 157 155 152 151 150 149 150 151 148 147 150 151 148 146 147 153 158 159 155 151 149 148 151 157 159 158 157 157 157 158 160 162 162 162 160 158 152 139 127 121 124 131 135 141 150 153 145 124 76 28 31 51 62 63 63 55 47 41 35 31 29 24 15 10 8 7 4 2 1 359 358 357 356 355 354 352 350 348 348 348 347 348 349 350
156 157 155 154 157 158 159 159 160 158 158 159 155 154 154 155 158 160 160 157 156 156 156 157 160 162 162 162 164 164 163 166 168 168 167 166 167 165 158 153 146 136 129 124 129 142 144 135 120 106 94 83 82 79 72 60 45 35 28 22 17 16 15 9 4 1 359 358 357 356 355 355 354 353 352 351 350 349 348 347 347 346 347 347 348
159 160 159 160 161 163 165 167 169 167 164 161 159 161 162 163 163 159 155 154 155 158 160 160 162 166 168 167 170 172 170 171 174 175 174 174 176 177 175 175 176 175 162 148 146 152 146 133 128 126 122 99 46 32 27 16 4 360 360 1 3 3 3 2 359 356 354 353 352 351 351 351 351 349 348 348 348 348 347 346 347 347 347 347 346
166 166 165 165 166 169 173 176 177 173 167 164 164 168 169 167 163 154 148 147 151 156 159 161 164 171 174 173 176 178 177 177 180 182 182 184 186 188 190 190 196 209 216 220 221 220 215 187 179 187 217 296 331 338 342 344 342 339 340 342 347 349 351 352 352 352 350 348 347 346 346 346 346 346 345 345 345 346 346 346 347 347 347 347 346
174 174 172 172 174 180 186 188 188 182 174 171 172 175 174 170 164 156 151 150 153 155 157 161 169 177 181 180 181 184 185 185 187 189 191 194 196 199 202 204 210 222 232 243 249 250 252 252 253 260 274 290 307 315 318 322 324 325 326 328 331 332 336 341 343 345 344 343 342 341 342 342 342 343 342 343 343 344 345 345 346 346 346 346 346
179 179 178 179 184 190 195 197 198 194 187 185 185 184 179 175 171 162 157 159 161 160 156 157 168 180 187 189 188 188 191 194 195 197 201 204 207 209 213 216 221 230 239 250 258 263 266 266 266 270 276 284 293 298 301 305 310 313 316 318 321 322 324 328 333 336 337 338 338 338 339 339 339 340 340 341 341 342 343 343 344 345 346 346 347
181 181 182 185 189 194 197 200 203 200 198 198 198 194 189 189 183 169 167 167 167 169 159 147 152 168 185 195 197 197 198 200 202 205 209 213 216 219 223 226 229 233 240 249 258 266 272 273 273 274 279 283 288 291 294 298 303 307 309 312 315 317 318 320 323 327 331 332 333 334 336 336 337 337 338 339 339 340 340 342 343 345 346 346 346
183 183 185 187 188 192 196 200 203 203 204 208 209 207 206 207 199 185 183 182 178 178 170 149 139 145 164 184 197 205 207 208 210 213 217 220 222 224 227 232 236 240 243 248 255 263 270 275 276 279 283 285 286 289 292 297 301 305 307 309 310 312 315 316 318 322 325 327 329 331 332 333 334 335 336 337 337 338 339 341 343 345 347 346 346
184 185 188 190 189 190 194 199 202 204 208 212 216 217 218 219 216 208 203 200 198 193 181 170 155 146 154 169 187 200 207 211 217 223 227 228 229 230 232 235 239 244 248 252 256 261 266 271 275 279 282 285 286 288 292 297 300 303 305 306 308 310 312 314 316 318 321 323 325 327 329 330 331 332 334 335 336 337 339 341 343 346 347 346 345
182 183 188 192 192 191 194 198 200 203 206 210 215 218 221 222 225 226 221 216 216 214 204 191 180 174 179 188 200 204 205 210 219 226 231 233 235 236 238 240 243 247 250 254 258 260 264 267 271 275 278 282 285 288 293 296 299 301 302 304 306 308 310 312 313 315 318 320 322 323 325 326 328 331 333 334 334 336 339 342 343 346 347 345 344
177 182 187 191 193 194 194 198 201 203 206 209 213 218 221 224 229 233 232 228 226 228 226 217 209 209 212 214 218 222 223 224 228 232 234 236 238 239 241 243 247 250 253 256 259 261 263 265 268 271 275 279 282 286 290 293 296 297 300 302 304 306 307 309 310 312 315 317 319 319 321 323 327 331 333 333 333 335 339 341 343 346 347 345 344
177 182 187 191 194 194 194 196 200 204 208 211 215 218 222 225 229 232 232 231 231 232 233 231 226 224 228 231 230 230 231 234 240 243 242 243 244 244 243 243 245 248 251 253 257 260 263 265 267 270 273 276 279 282 285 288 290 292 294 297 299 300 302 304 306 308 311 313 315 316 319 323 328 331 332 332 332 335 338 340 342 345 346 344 345
182 183 187 191 193 192 192 195 198 202 207 212 218 221 224 228 230 232 232 230 230 232 234 235 234 232 232 237 239 238 237 238 243 246 246 246 248 249 251 250 249 249 251 253 256 261 265 267 269 271 273 276 278 279 282 283 285 286 288 290 292 295 298 301 303 305 307 310 312 316 320 325 329 331 331 332 332 334 337 339 341 344 345 345 346
187 187 189 192 195 195 195 197 198 200 204 211 217 220 223 225 229 232 234 232 232 233 234 236 238 238 237 240 245 248 249 248 249 251 250 249 251 254 258 259 258 259 260 260 262 266 269 270 273 275 276 278 280 281 282 283 284 286 287 289 291 294 297 300 302 304 306 309 313 317 322 327 330 331 331 332 332 333 334 337 340 342 343 345 346
195 193 193 195 197 198 200 202 202 202 204 209 214 217 218 220 225 231 234 234 235 234 234 236 239 240 241 243 246 249 252 253 254 256 257 257 260 263 266 267 268 268 268 269 270 274 278 278 280 281 281 283 285 286 287 288 289 290 291 293 294 296 298 300 303 305 307 310 315 319 324 327 329 330 330 331 331 330 331 334 337 340 341 343 346
204 202 200 200 201 202 203 205 207 208 209 209 212 214 215 217 220 225 227 228 232 234 234 236 239 243 246 249 252 254 255 257 258 259 261 263 266 268 271 272 273 274 274 274 275 278 283 285 287 289 290 291 292 293 293 295 296 297 297 298 298 299 301 303 305 307 308 313 317 321 324 327 329 329 330 331 328 327 328 331 335 338 339 341 345
209 209 210 208 207 207 208 210 213 214 215 214 214 214 215 216 218 221 223 225 229 231 232 236 240 245 249 253 257 259 260 261 263 264 265 266 268 270 272 273 275 276 275 276 277 278 281 285 288 292 294 296 297 297 298 299 300 301 302 302 302 304 306 307 309 310 312 316 320 323 326 327 328 328 329 329 325 324 325 329 334 336 336 339 343
214 214 216 216 214 213 213 215 216 217 219 219 219 219 219 218 218 220 223 225 231 231 232 236 241 246 249 253 257 260 263 264 265 267 268 268 270 271 273 275 276 277 277 277 279 279 279 282 287 290 293 295 297 298 300 301 303 304 305 306 308 311 312 313 315 317 319 322 325 327 328 329 330 329 328 327 324 323 324 328 332 334 333 336 341
218 219 221 222 222 221 219 219 219 219 220 221 222 224 225 225 225 226 226 228 233 234 235 237 239 242 247 252 258 262 265 267 268 270 271 272 272 272 274 276 277 279 281 282 283 283 282 282 285 289 291 294 297 299 300 302 305 308 309 310 312 314 315 316 318 320 322 326 328 330 330 331 331 331 329 327 324 323 324 327 330 330 330 333 338
222 223 226 227 227 227 227 226 224 223 223 222 223 225 228 232 233 234 233 232 235 237 239 241 240 240 242 247 257 263 267 268 268 269 269 270 271 272 274 276 277 279 282 285 286 287 288 287 288 290 292 293 296 299 300 302 305 307 307 308 310 311 312 313 316 319 322 326 328 329 330 330 331 331 330 328 325 323 324 327 327 327 327 330 334
224 225 227 229 231 231 232 231 230 229 229 227 226 226 229 234 239 242 242 240 239 239 240 243 244 244 243 245 252 258 263 265 266 267 269 268 269 271 272 275 277 280 282 284 286 288 289 291 291 291 291 292 294 297 299 301 303 303 302 302 304 305 307 309 313 317 321 324 326 327 328 329 330 330 329 328 325 321 322 324 325 324 323 325 330
229 229 229 229 231 232 234 235 235 236 235 233 231 231 232 235 238 242 245 245 243 242 241 243 245 246 246 246 249 253 256 258 259 262 265 267 269 270 272 273 275 278 281 283 285 287 288 289 290 290 290 291 293 295 297 299 301 301 300 300 299 300 303 307 312 317 319 321 323 325 327 328 328 328 327 327 323 319 319 322 323 324 322 321 323
232 233 233 233 234 234 235 237 238 240 240 239 237 236 236 238 239 242 243 245 245 244 243 244 246 247 249 249 250 251 253 254 256 258 261 264 267 268 270 272 274 275 278 280 282 285 287 288 289 290 291 291 294 296 298 299 300 299 299 300 301 302 304 307 313 319 321 321 322 325 326 326 325 325 325 324 320 315 316 319 322 323 323 320 319
236 236 236 237 237 237 238 239 240 242 243 243 243 242 241 241 242 243 244 245 246 245 245 246 247 249 250 251 250 250 251 252 254 257 259 261 263 265 267 270 273 275 276 278 280 282 285 287 289 291 291 292 295 297 298 299 299 300 300 300 302 305 307 310 316 322 322 320 320 322 324 322 320 321 321 319 316 313 314 317 320 322 322 319 316
238 240 240 240 239 239 240 241 242 243 245 246 246 247 247 247 247 248 249 250 250 250 248 248 248 250 251 251 251 252 252 254 256 257 259 261 264 265 266 267 270 273 276 278 281 283 285 287 288 289 290 292 295 296 297 298 298 299 300 301 304 306 308 311 318 323 322 317 316 317 319 317 315 315 316 315 313 311 312 315 317 320 320 318 314
239 241 242 243 242 241 241 242 244 245 246 246 247 249 252 253 254 255 256 257 258 259 259 257 255 254 254 254 254 255 257 259 261 263 265 266 268 269 270 271 272 274 277 280 282 284 286 287 289 291 293 294 296 297 298 298 297 298 300 302 305 308 310 313 317 320 320 315 312 313 315 314 311 309 311 311 309 307 309 312 314 316 316 315 312
242 242 243 245 244 243 242 243 245 246 247 247 247 249 252 255 257 259 261 263 264 266 267 267 265 262 261 260 260 260 262 263 266 268 270 271 272 273 274 276 276 278 280 282 284 285 287 289 291 293 295 296 297 297 298 298 297 299 301 303 305 308 311 313 314 316 317 314 311 310 313 315 309 305 307 308 304 303 305 308 311 311 310 309 308
244 244 245 245 245 244 242 242 244 246 247 247 248 249 251 254 257 259 260 262 264 265 266 266 266 266 266 265 265 266 266 268 269 271 272 273 274 275 276 277 279 281 282 284 286 288 289 290 291 292 294 296 296 297 298 298 299 300 301 302 304 306 308 308 309 311 313 313 310 307 310 315 310 305 307 305 299 299 301 305 307 305 303 303 303
244 246 246 246 246 244 242 242 244 245 247 248 249 250 252 255 257 259 260 261 262 262 262 262 262 264 265 266 267 268 269 270 271 272 273 273 273 274 276 277 279 281 282 284 286 288 289 290 291 293 295 297 298 300 302 302 302 303 304 303 303 304 304 304 304 307 310 310 307 305 308 313 311 307 307 303 299 300 302 303 303 301 299 299 299
244 247 249 248 247 245 243 242 243 246 249 251 253 254 255 256 258 260 261 262 262 262 261 260 261 263 265 267 268 269 269 269 270 271 271 272 273 274 275 277 279 280 282 284 285 285 286 288 290 293 295 297 299 301 303 303 304 305 305 304 304 305 303 301 302 304 307 307 304 303 305 309 310 308 307 304 302 302 303 303 302 300 299 299 297
244 248 251 249 245 244 243 244 245 248 250 253 257 259 260 260 260 261 261 262 263 264 264 263 263 263 265 267 269 269 268 268 268 269 270 272 274 276 277 277 278 279 281 283 282 281 282 284 287 290 293 296 298 299 300 301 302 303 302 301 304 305 301 299 300 302 303 304 304 302 302 306 308 306 305 304 303 304 304 304 302 301 300 299 297
245 249 251 248 244 243 243 244 246 248 250 253 257 261 262 262 262 261 261 261 262 265 266 266 266 265 265 267 268 268 267 266 265 266 269 271 273 275 276 276 276 277 279 278 277 276 277 280 284 288 291 294 296 297 297 298 299 299 298 300 302 301 298 298 299 300 300 301 302 301 301 305 307 304 304 305 305 305 306 305 303 301 300 299 297
246 249 250 248 246 246 246 247 248 249 251 254 257 259 260 261 261 260 258 258 261 263 265 265 265 265 265 266 267 267 267 265 264 265 266 268 270 272 273 274 275 277 277 276 276 276 278 279 282 285 288 291 293 294 295 296 296 296 296 298 298 296 295 296 297 297 298 300 301 300 301 304 304 303 305 307 307 307 307 304 301 298 297 297 296
241 245 249 251 252 252 250 249 250 253 256 258 260 260 261 262 262 261 259 260 262 264 263 263 264 266 265 266 266 266 266 266 266 266 266 267 269 270 272 273 274 275 276 276 277 278 279 280 282 283 286 288 289 291 292 293 293 293 294 294 294 292 293 293 294 296 297 299 301 300 301 303 304 304 306 308 308 308 307 304 299 294 292 293 292
Height
3241 3242 3243 3243 3244 3245 3246 3247 3248 3248 3248 3249 3249 3250 3250 3251 3251 3252 3252 3253 3253 3254 3255 3255 3256 3256 3257 3257 3258 3258 3259 3259 3260 3260 3261 3261 3262 3262 3262 3263 3263 3263 3263 3263 3264 3264 3264 3263 3263 3263 3263 3263 3262 3262 3261 3261 3260 3260 3259 3258 3257 3256 3256 3255 3254 3253 3253 3252 3251 3250 3248 3247 3246 3245 3244 3243 3241 3241 3240 3239 3238 3237 3236 3234 3233
3242 3243 3244 3245 3245 3246 3247 3248 3249 3250 3250 3250 3251 3251 3252 3252 3253 3253 3254 3254 3255 3255 3256 3257 3257 3258 3258 3259 3259 3260 3260 3261 3262 3262 3262 3263 3263 3264 3264 3264 3264 3265 3265 3265 3265 3265 3265 3265 3265 3264 3264 3264 3263 3263 3263 3262 3261 3261 3260 3259 3258 3257 3257 3256 3255 3254 3253 3252 3251 3250 3249 3248 3247 3246 3245 3243 3242 3241 3240 3239 3238 3237 3235 3234 3233
3243 3244 3245 3246 3247 3248 3248 3249 3250 3251 3251 3252 3252 3253 3253 3253 3254 3254 3255 3255 3256 3257 3258 3258 3259 3259 3260 3261 3261 3261 3262 3263 3263 3264 3264 3265 3265 3266 3266 3266 3266 3266 3266 3266 3267 3267 3267 3266 3266 3266 3266 3265 3265 3264 3264 3263 3262 3262 3261 3260 3259 3259 3258 3257 3256 3255 3254 3253 3252 3251 3250 3249 3248 3247 3246 3244 3243 3242 3240 3239 3238 3236 3235 3234 3233
3244 3245 3246 3247 3248 3249 3249 3250 3251 3252 3252 3253 3253 3254 3254 3255 3255 3256 3256 3257 3258 3259 3259 3260 3260 3261 3261 3262 3263 3263 3263 3264 3265 3265 3266 3266 3267 3267 3268 3268 3268 3268 3268 3268 3268 3268 3268 3268 3268 3267 3267 3266 3266 3265 3265 3264 3264 3263 3262 3262 3261 3260 3259 3258 3257 3256 3256 3254 3253 3252 3251 3250 3249 3248 3247 3245 3244 3242 3241 3239 3238 3236 3235 3234 3232
3245 3246 3247 3248 3249 3250 3251 3252 3252 3253 3254 3254 3254 3255 3255 3256 3256 3257 3258 3258 3259 3260 3261 3261 3262 3262 3263 3263 3264 3265 3265 3266 3266 3267 3267 3268 3268 3269 3269 3269 3269 3269 3269 3269 3269 3269 3269 3269 3269 3269 3268 3268 3267 3267 3266 3266 3265 3264 3264 3263 3262 3262 3261 3260 3259 3258 3257 3256 3255 3254 3253 3251 3250 3249 3247 3246 3244 3243 3241 3240 3238 3237 3235 3234 3232
3247 3248 3249 3250 3251 3251 3252 3253 3253 3254 3255 3255 3256 3256 3257 3257 3258 3258 3259 3260 3261 3262 3262 3262 3263 3263 3264 3265 3266 3266 3267 3267 3268 3269 3269 3270 3270 3271 3271 3271 3271 3271 3271 3271 3271 3271 3271 3271 3270 3270 3270 3269 3269 3268 3268 3267 3267 3266 3265 3265 3264 3263 3262 3261 3260 3259 3258 3257 3256 3255 3254 3252 3251 3250 3248 3247 3245 3244 3242 3240 3239 3237 3235 3233 3232
3248 3249 3250 3251 3252 3253 3253 3254 3255 3255 3256 3256 3257 3257 3258 3258 3259 3260 3260 3261 3262 3263 3263 3264 3264 3265 3265 3266 3267 3267 3268 3269 3270 3270 3271 3271 3272 3272 3273 3273 3273 3273 3273 3272 3272 3272 3272 3272 3272 3271 3271 3271 3270 3270 3269 3269 3268 3268 3267 3266 3265 3264 3264 3263 3261 3260 3259 3258 3257 3256 3255 3253 3252 3251 3249 3247 3246 3244 3242 3241 3239 3237 3235 3233 3232
3250 3251 3251 3252 3253 3254 3254 3255 3256 3256 3257 3257 3258 3259 3259 3260 3260 3261 3262 3262 3263 3264 3264 3265 3265 3266 3267 3267 3268 3269 3269 3270 3271 3272 3272 3273 3273 3274 3274 3274 3274 3274 3274 3274 3274 3274 3273 3273 3273 3273 3273 3272 3272 3272 3271 3271 3270 3269 3269 3268 3267 3266 3265 3264 3263 3262 3261 3259 3258 3257 3256 3254 3253 3251 3250 3248 3246 3245 3243 3241 3239 3237 3235 3233 3232
3251 3252 3252 3253 3254 3254 3255 3256 3257 3257 3258 3258 3259 3260 3260 3261 3261 3262 3263 3264 3264 3265 3266 3266 3267 3267 3268 3269 3269 3270 3271 3272 3272 3273 3274 3274 3275 3275 3275 3276 3276 3276 3276 3276 3275 3275 3275 3275 3274 3274 3274 3274 3274 3273 3273 3272 3272 3271 3270 3269 3268 3267 3266 3265 3264 3263 3262 3260 3259 3258 3257 3255 3254 3252 3251 3249 3247 3245 3243 3241 3240 3238 3236 3234 3232
3252 3253 3253 3254 3255 3255 3256 3257 3258 3258 3259 3260 3260 3261 3261 3262 3262 3263 3264 3265 3266 3267 3267 3267 3268 3268 3269 3270 3271 3271 3272 3273 3274 3275 3275 3276 3276 3276 3277 3277 3277 3277 3277 3277 3277 3277 3276 3276 3276 3276 3275 3275 3275 3275 3274 3274 3273 3272 3271 3270 3269 3268 3267 3266 3265 3264 3263 3262 3260 3259 3257 3256 3254 3253 3251 3250 3248 3246 3244 3242 3240 3238 3236 3234 3232
3253 3254 3254 3255 3256 3257 3258 3259 3259 3260 3260 3261 3261 3262 3262 3263 3264 3265 3265 3266 3267 3268 3268 3269 3269 3269 3270 3271 3272 3272 3273 3274 3275 3276 3277 3277 3277 3278 3278 3278 3278 3278 3278 3278 3278 3278 3278 3278 3277 3277 3277 3277 3276 3276 3276 3275 3274 3273 3272 3272 3270 3269 3268 3267 3266 3265 3264 3263 3261 3260 3258 3257 3255 3254 3252 3250 3248 3246 3244 3242 3240 3238 3236 3234 3232
3254 3255 3255 3256 3257 3258 3259 3260 3261 3261 3262 3262 3262 3263 3263 3264 3265 3266 3267 3267 3268 3269 3270 3270 3270 3271 3271 3272 3273 3273 3274 3275 3276 3277 3278 3278 3279 3279 3279 3279 3279 3279 3279 3279 3279 3279 3279 3279 3279 3278 3278 3278 3277 3277 3277 3276 3275 3274 3273 3272 3271 3270 3269 3268 3267 3266 3265 3263 3262 3261 3259 3257 3256 3254 3252 3250 3248 3246 3244 3242 3240 3238 3236 3234 3232
3254 3255 3256 3257 3258 3260 3261 3261 3262 3262 3263 3263 3263 3264 3265 3265 3266 3267 3268 3269 3269 3270 3271 3271 3271 3272 3272 3273 3274 3275 3276 3276 3277 3278 3279 3279 3280 3280 3280 3280 3280 3280 3280 3280 3280 3280 3280 3280 3280 3280 3279 3279 3279 3278 3277 3277 3276 3275 3274 3273 3272 3271 3270 3269 3268 3267 3266 3264 3263 3261 3260 3258 3256 3255 3253 3251 3248 3246 3244 3242 3240 3238 3236 3233 3231
3255 3256 3257 3258 3259 3260 3261 3262 3263 3263 3264 3264 3264 3265 3266 3266 3267 3268 3269 3270 3270 3271 3272 3272 3272 3273 3273 3274 3275 3276 3277 3278 3278 3279 3280 3280 3281 3281 3281 3281 3281 3281 3281 3281 3281 3281 3281 3281 3281 3281 3280 3280 3280 3279 3278 3277 3277 3276 3275 3274 3273 3272 3271 3270 3269 3267 3266 3265 3263 3262 3260 3259 3257 3255 3253 3251 3249 3246 3244 3242 3240 3238 3235 3233 3231
3256 3257 3258 3259 3260 3261 3262 3263 3263 3264 3264 3265 3266 3266 3267 3268 3268 3269 3270 3270 3271 3272 3272 3273 3273 3274 3274 3275 3276 3277 3278 3279 3279 3280 3281 3281 3282 3282 3282 3283 3282 3282 3282 3282 3282 3282 3282 3282 3282 3282 3281 3281 3280 3280 3279 3278 3277 3277 3276 3275 3274 3273 3272 3270 3269 3268 3267 3265 3264 3262 3261 3259 3257 3255 3253 3251 3249 3246 3244 3242 3240 3237 3235 3233 3230
3256 3257 3258 3260 3260 3261 3262 3263 3264 3264 3265 3266 3267 3268 3268 3269 3269 3270 3270 3271 3272 3272 3273 3274 3274 3275 3275 3276 3277 3278 3278 3279 3280 3281 3282 3282 3283 3283 3283 3284 3284 3283 3283 3283 3283 3283 3283 3283 3283 3283 3282 3282 3281 3280 3280 3279 3278 3277 3276 3276 3275 3274 3272 3271 3270 3268 3267 3266 3264 3263 3261 3259 3257 3255 3253 3251 3249 3246 3244 3242 3239 3237 3235 3232 3230
3257 3258 3259 3260 3261 3261 3262 3263 3264 3265 3266 3267 3268 3269 3269 3270 3270 3271 3271 3272 3272 3273 3274 3274 3275 3276 3276 3277 3278 3278 3279 3280 3281 3282 3283 3283 3284 3284 3284 3284 3284 3284 3284 3284 3284 3284 3284 3283 3283 3283 3283 3283 3282 3281 3280 3280 3279 3278 3277 3276 3275 3274 3273 3272 3270 3269 3267 3266 3264 3263 3261 3259 3257 3255 3253 3251 3249 3246 3244 3242 3239 3237 3234 3232 3230
3258 3259 3259 3260 3261 3262 3263 3264 3265 3266 3267 3268 3269 3269 3270 3271 3271 3272 3272 3272 3273 3273 3274 3275 3275 3276 3277 3277 3278 3279 3280 3280 3281 3282 3283 3284 3284 3285 3285 3285 3285 3285 3285 3284 3284 3284 3284 3284 3284 3284 3283 3283 3283 3282 3281 3280 3279 3279 3278 3277 3276 3274 3273 3272 3271 3269 3268 3266 3264 3263 3261 3259 3257 3255 3253 3251 3248 3246 3243 3241 3239 3236 3234 3232 3229
3258 3259 3260 3261 3261 3262 3263 3264 3265 3266 3267 3268 3269 3270 3271 3271 3272 3272 3273 3273 3273 3274 3275 3275 3276 3277 3277 3278 3279 3279 3280 3281 3282 3283 3283 3284 3285 3285 3285 3286 3286 3286 3286 3285 3285 3285 3284 3284 3284 3284 3284 3283 3283 3282 3282 3281 3280 3279 3278 3277 3276 3275 3273 3272 3271 3269 3268 3266 3265 3263 3261 3259 3257 3255 3253 3251 3248 3246 3243 3241 3239 3236 3234 3231 3229
3259 3260 3260 3261 3262 3263 3264 3265 3266 3267 3268 3269 3270 3270 3271 3272 3272 3273 3273 3273 3274 3274 3275 3276 3277 3277 3278 3278 3279 3280 3280 3281 3282 3283 3284 3284 3285 3285 3285 3286 3286 3286 3286 3286 3285 3285 3285 3285 3284 3284 3284 3284 3284 3283 3282 3281 3281 3280 3278 3277 3276 3275 3274 3272 3271 3269 3268 3266 3265 3263 3261 3259 3257 3255 3253 3250 3248 3245 3243 3240 3238 3236 3233 3231 3228
3260 3260 3261 3262 3263 3264 3264 3265 3266 3267 3268 3269 3270 3271 3271 3272 3273 3273 3273 3274 3274 3275 3275 3276 3277 3278 3278 3279 3280 3280 3281 3282 3283 3283 3284 3285 3285 3285 3286 3286 3286 3286 3286 3286 3286 3285 3285 3285 3285 3284 3284 3284 3284 3283 3283 3282 3281 3280 3279 3278 3276 3275 3274 3272 3271 3269 3268 3266 3264 3262 3261 3259 3257 3255 3252 3250 3247 3245 3242 3240 3238 3235 3232 3230 3227
3260 3261 3262 3263 3264 3264 3265 3266 3267 3268 3269 3269 3270 3271 3272 3273 3273 3273 3274 3274 3275 3275 3276 3276 3277 3278 3278 3279 3280 3281 3282 3282 3283 3284 3284 3285 3285 3286 3286 3286 3286 3286 3286 3286 3286 3286 3285 3285 3285 3285 3284 3284 3284 3283 3282 3282 3281 3280 3279 3278 3276 3275 3273 3272 3270 3269 3267 3266 3264 3262 3260 3258 3256 3254 3252 3249 3247 3244 3242 3239 3237 3234 3232 3229 3227
3260 3261 3262 3263 3264 3265 3266 3267 3268 3269 3269 3270 3270 3271 3272 3273 3273 3274 3274 3275 3275 3276 3276 3276 3277 3278 3279 3279 3280 3281 3282 3282 3283 3284 3285 3285 3285 3286 3286 3286 3286 3286 3286 3286 3286 3286 3285 3285 3285 3284 3284 3284 3283 3283 3282 3281 3280 3279 3278 3277 3276 3275 3273 3272 3270 3268 3267 3265 3263 3262 3260 3258 3256 3253 3251 3249 3246 3244 3241 3239 3236 3234 3231 3228 3226
3260 3261 3262 3263 3264 3265 3266 3267 3268 3269 3270 3270 3271 3272 3272 3273 3274 3274 3274 3275 3275 3276 3276 3277 3277 3278 3279 3279 3280 3281 3281 3282 3283 3284 3284 3285 3286 3286 3286 3286 3286 3286 3286 3286 3286 3285 3285 3285 3284 3284 3284 3283 3283 3282 3281 3280 3280 3279 3278 3277 3275 3274 3273 3271 3270 3268 3266 3265 3263 3261 3259 3257 3255 3253 3251 3249 3246 3243 3241 3238 3236 3233 3231 3227 3225
3260 3261 3262 3263 3264 3265 3266 3268 3268 3269 3270 3271 3271 3272 3273 3273 3274 3274 3274 3275 3275 3276 3276 3277 3277 3278 3278 3279 3280 3281 3281 3282 3282 3283 3284 3284 3285 3285 3285 3286 3286 3285 3285 3285 3285 3285 3285 3284 3284 3284 3283 3283 3282 3282 3281 3280 3279 3278 3277 3276 3275 3274 3272 3271 3269 3268 3266 3264 3262 3261 3259 3257 3255 3252 3250 3248 3246 3243 3240 3238 3235 3233 3230 3227 3224
3260 3261 3262 3263 3264 3265 3266 3267 3268 3269 3270 3271 3271 3272 3272 3273 3273 3274 3274 3274 3275 3275 3276 3276 3277 3278 3278 3279 3279 3280 3280 3281 3282 3282 3283 3284 3284 3284 3284 3285 3285 3285 3285 3285 3285 3284 3284 3284 3283 3283 3283 3282 3282 3281 3280 3279 3278 3277 3276 3275 3274 3273 3271 3270 3268 3267 3265 3264 3262 3260 3258 3256 3254 3252 3249 3247 3245 3242 3240 3237 3235 3232 3230 3226 3224
3260 3261 3262 3263 3264 3265 3266 3267 3268 3269 3269 3270 3271 3272 3272 3273 3273 3273 3274 3274 3275 3275 3276 3276 3277 3277 3278 3278 3279 3279 3280 3280 3281 3281 3282 3282 3283 3283 3283 3284 3284 3284 3284 3284 3284 3283 3283 3283 3282 3282 3282 3281 3281 3280 3279 3278 3277 3276 3275 3274 3273 3272 3270 3269 3267 3266 3265 3263 3261 3259 3258 3256 3253 3251 3248 3246 3243 3241 3239 3236 3234 3232 3229 3226 3223
3260 3261 3262 3263 3264 3264 3265 3266 3267 3268 3269 3270 3270 3271 3272 3272 3273 3273 3273 3274 3274 3275 3275 3276 3276 3277 3277 3278 3278 3279 3279 3280 3280 3280 3281 3281 3281 3281 3282 3282 3282 3282 3282 3282 3282 3282 3282 3281 3281 3281 3280 3280 3279 3279 3278 3277 3276 3275 3274 3273 3272 3271 3269 3267 3266 3265 3263 3262 3260 3259 3257 3255 3252 3250 3248 3245 3242 3240 3238 3236 3233 3231 3229 3226 3223
3260 3261 3262 3263 3263 3264 3265 3266 3267 3268 3268 3269 3270 3270 3271 3271 3272 3272 3273 3273 3273 3274 3275 3275 3276 3276 3277 3277 3278 3278 3279 3279 3279 3280 3280 3280 3280 3280 3280 3280 3280 3281 3281 3281 3281 3280 3280 3280 3279 3279 3279 3278 3278 3277 3276 3275 3274 3274 3273 3272 3270 3269 3267 3266 3264 3263 3262 3261 3259 3257 3256 3254 3252 3249 3247 3244 3242 3239 3237 3235 3233 3230 3228 3226 3223
3260 3261 3262 3262 3263 3264 3265 3265 3266 3267 3268 3268 3269 3270 3270 3271 3271 3272 3272 3272 3273 3273 3274 3275 3275 3276 3276 3277 3277 3278 3278 3278 3279 3279 3279 3279 3279 3279 3279 3279 3279 3279 3279 3279 3279 3279 3278 3278 3278 3277 3277 3276 3276 3275 3274 3273 3272 3272 3271 3270 3268 3267 3266 3264 3263 3261 3260 3259 3257 3256 3254 3253 3251 3249 3246 3244 3241 3238 3236 3234 3232 3230 3228 3226 3223
3260 3260 3261 3262 3263 3264 3264 3265 3265 3266 3267 3267 3268 3269 3269 3270 3270 3271 3271 3272 3272 3272 3273 3274 3274 3275 3275 3276 3276 3277 3277 3277 3278 3278 3278 3278 3278 3278 3278 3278 3278 3277 3277 3277 3277 3277 3277 3276 3276 3275 3275 3274 3274 3273 3272 3271 3270 3269 3268 3267 3266 3265 3264 3262 3261 3259 3258 3257 3256 3254 3253 3251 3250 3248 3245 3243 3240 3238 3235 3234 3232 3229 3227 3225 3223
3259 3260 3261 3262 3262 3263 3264 3264 3265 3265 3266 3266 3267 3268 3268 3269 3269 3270 3270 3271 3271 3271 3272 3273 3273 3274 3274 3275 3275 3275 3276 3276 3276 3277 3277 3277 3277 3277 3277 3277 3276 3276 3276 3276 3276 3276 3275 3275 3274 3274 3273 3273 3272 3271 3270 3269 3268 3267 3266 3265 3264 3263 3262 3261 3259 3258 3256 3255 3254 3253 3251 3250 3248 3246 3244 3242 3239 3237 3235 3233 3231 3229 3227 3225 3223
3259 3260 3261 3261 3262 3263 3263 3264 3265 3265 3265 3266 3266 3267 3267 3268 3269 3269 3270 3270 3270 3271 3271 3271 3272 3272 3273 3273 3274 3274 3275 3275 3275 3275 3275 3276 3276 3276 3276 3275 3275 3275 3274 3274 3274 3274 3274 3273 3273 3272 3272 3271 3271 3270 3269 3268 3267 3266 3265 3264 3262 3261 3260 3259 3258 3257 3255 3254 3253 3251 3250 3249 3247 3245 3243 3241 3239 3236 3234 3232 3231 3229 3227 3225 3223
3259 3259 3260 3261 3261 3262 3263 3263 3264 3265 3265 3265 3266 3266 3267 3267 3268 3268 3269 3269 3269 3270 3270 3270 3271 3271 3272 3272 3272 3273 3273 3274 3274 3274 3274 3274 3275 3275 3274 3274 3274 3274 3273 3273 3273 3273 3273 3272 3271 3271 3270 3270 3269 3268 3267 3267 3266 3265 3264 3262 3261 3260 3259 3258 3257 3256 3254 3253 3252 3251 3249 3248 3246 3245 3243 3241 3238 3236 3233 3232 3230 3228 3227 3225 3223
3258 3259 3259 3260 3261 3261 3262 3262 3263 3264 3264 3265 3266 3266 3266 3267 3267 3267 3268 3268 3269 3269 3269 3269 3270 3270 3271 3271 3271 3272 3272 3272 3272 3272 3272 3273 3273 3273 3273 3273 3273 3272 3272 3272 3271 3271 3271 3271 3270 3269 3268 3267 3267 3266 3265 3265 3264 3263 3262 3261 3260 3259 3257 3256 3256 3254 3253 3252 3251 3250 3249 3247 3246 3244 3242 3240 3238 3235 3233 3231 3229 3228 3226 3225 3223
3256 3257 3258 3259 3260 3261 3261 3262 3262 3263 3263 3264 3265 3265 3266 3266 3266 3267 3267 3268 3268 3268 3268 3268 3269 3269 3270 3270 3270 3270 3271 3271 3271 3271 3271 3271 3271 3271 3271 3271 3271 3271 3270 3270 3270 3269 3269 3269 3268 3267 3266 3266 3265 3264 3263 3263 3262 3261 3260 3259 3258 3257 3256 3255 3254 3253 3252 3251 3250 3249 3247 3246 3244 3242 3241 3239 3237 3235 3233 3231 3229 3227 3226 3224 3223
3254 3255 3256 3258 3259 3259 3260 3260 3261 3261 3261 3262 3263 3264 3264 3265 3266 3266 3266 3267 3267 3267 3267 3268 3268 3268 3269 3269 3269 3269 3270 3270 3270 3270 3270 3270 3270 3270 3270 3269 3269 3269 3269 3268 3268 3268 3267 3267 3267 3266 3265 3264 3264 3263 3262 3261 3260 3259 3258 3257 3256 3255 3254 3253 3252 3251 3249 3249 3248 3247 3246 3244 3243 3241 3240 3238 3236 3234 3232 3230 3229 3227 3226 3224 3222
3252 3253 3254 3256 3257 3258 3258 3259 3259 3260 3260 3261 3261 3262 3263 3263 3264 3265 3265 3266 3266 3266 3267 3267 3267 3267 3267 3268 3268 3268 3268 3268 3268 3268 3268 3268 3268 3268 3268 3268 3268 3268 3267 3267 3266 3266 3266 3266 3265 3265 3264 3263 3263 3262 3260 3259 3258 3257 3256 3256 3255 3253 3252 3251 3251 3250 3248 3247 3246 3245 3244 3243 3241 3240 3238 3237 3235 3233 3231 3230 3228 3226 3225 3224 3222
3251 3252 3253 3254 3255 3256 3256 3257 3258 3258 3259 3259 3260 3260 3261 3262 3263 3263 3264 3264 3265 3265 3265 3265 3266 3266 3266 3266 3266 3266 3267 3267 3267 3267 3267 3267 3267 3267 3267 3267 3266 3266 3266 3265 3265 3264 3264 3264 3263 3263 3263 3262 3261 3260 3259 3258 3257 3256 3254 3253 3253 3252 3251 3250 3249 3249 3248 3246 3245 3244 3243 3242 3240 3239 3237 3236 3234 3231 3230 3228 3227 3226 3224 3223 3222
3249 3250 3251 3252 3253 3254 3255 3255 3256 3257 3257 3258 3259 3259 3259 3260 3260 3261 3262 3262 3263 3263 3264 3264 3264 3264 3265 3265 3265 3265 3265 3265 3265 3265 3265 3265 3265 3265 3265 3265 3264 3264 3264 3263 3263 3262 3262 3262 3261 3261 3260 3260 3259 3259 3258 3257 3256 3254 3253 3251 3250 3250 3249 3249 3248 3248 3246 3245 3244 3243 3242 3240 3239 3237 3236 3234 3232 3230 3228 3227 3226 3225 3224 3222 3221
3247 3248 3249 3250 3251 3252 3253 3254 3254 3255 3256 3257 3258 3258 3258 3258 3258 3259 3260 3260 3261 3261 3262 3262 3262 3263 3263 3263 3263 3263 3263 3263 3263 3264 3264 3263 3263 3263 3263 3263 3262 3262 3262 3261 3261 3260 3260 3259 3259 3258 3258 3258 3257 3257 3256 3255 3254 3252 3251 3250 3249 3248 3247 3247 3247 3247 3245 3243 3242 3241 3240 3239 3237 3236 3234 3233 3231 3228 3227 3226 3225 3224 3223 3221 3220
3245 3246 3247 3248 3249 3250 3251 3252 3253 3253 3254 3255 3256 3256 3256 3256 3256 3257 3257 3258 3259 3259 3260 3260 3260 3261 3261 3261 3261 3261 3261 3261 3262 3262 3262 3262 3261 3261 3261 3261 3260 3260 3260 3259 3259 3258 3258 3257 3257 3256 3256 3256 3255 3254 3253 3253 3251 3250 3249 3248 3247 3246 3245 3244 3245 3245 3244 3241 3239 3239 3239 3237 3235 3234 3233 3231 3228 3227 3225 3224 3223 3222 3221 3220 3219
3242 3243 3244 3245 3246 3247 3248 3249 3251 3252 3252 3253 3253 3254 3254 3255 3255 3255 3256 3256 3257 3257 3258 3258 3259 3259 3259 3259 3259 3259 3260 3260 3260 3260 3260 3260 3260 3259 3259 3259 3258 3258 3257 3257 3257 3256 3256 3255 3255 3254 3254 3253 3253 3252 3251 3250 3249 3248 3247 3246 3245 3244 3243 3242 3242 3242 3242 3240 3238 3236 3237 3236 3234 3232 3231 3229 3227 3225 3223 3222 3221 3220 3219 3218 3217
3239 3240 3241 3243 3244 3245 3246 3247 3248 3248 3249 3249 3250 3251 3252 3252 3253 3254 3254 3255 3255 3256 3256 3256 3257 3257 3257 3257 3257 3257 3258 3258 3258 3258 3258 3257 3257 3257 3257 3257 3256 3256 3255 3255 3255 3254 3254 3253 3253 3252 3252 3251 3251 3250 3249 3248 3247 3246 3245 3244 3243 3242 3241 3240 3239 3239 3239 3238 3236 3234 3234 3234 3232 3230 3229 3228 3225 3223 3221 3220 3219 3218 3217 3216 3215
3236 3237 3238 3240 3241 3242 3243 3243 3244 3245 3245 3246 3247 3248 3249 3250 3250 3251 3252 3252 3253 3253 3254 3254 3254 3255 3255 3255 3255 3256 3256 3255 3255 3255 3255 3255 3254 3254 3254 3254 3254 3254 3253 3253 3252 3252 3251 3250 3250 3250 3250 3248 3248 3248 3247 3245 3244 3243 3243 3242 3241 3240 3239 3238 3237 3236 3236 3235 3233 3231 3231 3231 3230 3227 3227 3225 3223 3220 3219 3218 3217 3216 3214 3213 3212
3233 3233 3235 3236 3237 3238 3239 3240 3240 3241 3242 3243 3244 3245 3246 3247 3248 3248 3249 3249 3250 3251 3251 3251 3251 3252 3252 3253 3253 3254 3253 3253 3253 3252 3252 3252 3252 3252 3252 3252 3252 3252 3251 3251 3250 3249 3248 3247 3246 3246 3246 3246 3245 3244 3244 3243 3241 3240 3240 3239 3239 3238 3236 3235 3234 3233 3233 3232 3230 3228 3227 3228 3227 3225 3224 3223 3220 3218 3217 3216 3215 3213 3212 3211 3210
3229 3230 3231 3232 3234 3235 3236 3236 3236 3237 3239 3240 3241 3242 3243 3244 3245 3245 3246 3246 3247 3248 3248 3248 3248 3249 3249 3250 3250 3251 3251 3251 3250 3250 3249 3249 3249 3249 3249 3249 3249 3249 3249 3249 3248 3247 3246 3245 3244 3243 3243 3243 3242 3241 3241 3240 3238 3237 3236 3235 3235 3234 3233 3231 3231 3230 3230 3229 3227 3225 3224 3224 3223 3221 3221 3220 3218 3216 3215 3214 3212 3211 3209 3209 3208
3225 3226 3227 3229 3230 3232 3232 3233 3233 3235 3236 3238 3239 3240 3241 3241 3242 3243 3243 3243 3244 3245 3245 3245 3245 3246 3246 3247 3247 3248 3248 3248 3247 3247 3246 3246 3246 3247 3247 3247 3247 3246 3247 3246 3246 3245 3244 3243 3242 3241 3240 3240 3240 3239 3238 3237 3236 3234 3233 3232 3232 3231 3229 3227 3227 3227 3227 3226 3224 3221 3220 3221 3220 3218 3217 3217 3215 3214 3213 3212 3210 3208 3207 3206 3205
3222 3223 3224 3226 3227 3228 3229 3229 3231 3232 3233 3234 3236 3237 3237 3238 3239 3239 3240 3241 3241 3242 3242 3242 3242 3243 3243 3243 3244 3244 3245 3245 3244 3244 3244 3244 3244 3244 3244 3244 3243 3243 3244 3244 3242 3242 3241 3240 3239 3238 3238 3237 3237 3236 3236 3235 3234 3232 3230 3229 3229 3227 3225 3224 3223 3223 3223 3223 3222 3219 3216 3217 3217 3214 3213 3213 3212 3211 3210 3209 3207 3205 3204 3203 3203
3220 3221 3223 3224 3224 3225 3225 3226 3228 3229 3229 3231 3232 3233 3233 3234 3236 3236 3237 3237 3238 3238 3239 3239 3239 3239 3240 3240 3240 3241 3241 3241 3241 3241 3241 3240 3240 3240 3240 3240 3240 3240 3241 3240 3239 3239 3238 3237 3237 3236 3235 3234 3234 3233 3233 3232 3231 3229 3227 3226 3226 3224 3222 3221 3220 3220 3219 3220 3220 3217 3214 3214 3214 3212 3210 3209 3209 3208 3207 3206 3205 3203 3201 3200 3200
3218 3220 3221 3222 3222 3223 3223 3224 3225 3225 3226 3227 3228 3229 3230 3231 3232 3233 3233 3234 3234 3235 3235 3235 3236 3236 3236 3236 3237 3237 3237 3238 3238 3238 3237 3237 3237 3237 3237 3236 3236 3237 3237 3236 3235 3235 3235 3234 3234 3233 3232 3231 3231 3230 3230 3229 3228 3226 3225 3224 3223 3221 3219 3218 3217 3216 3216 3216 3217 3215 3211 3211 3210 3209 3208 3206 3205 3206 3205 3203 3202 3201 3199 3198 3197